DW8923 Weather Reports


time (UTC)temp
F
wind
direction
speed
knots
gust
knots
rain 1hr
in
rain 24hr
in
rain mn
in
humidity
%
barometer
mb
20260901030010 83 90 0.0 0.0 0.00 0.00 0.00 55 1012.6
20260901024506 85 90 0.0 0.0 0.00 0.00 0.00 55 1012.3
20260901023008 86 90 0.0 0.0 0.00 0.00 0.00 52 1012.1
20260901021559 87 90 0.0 0.0 0.00 0.00 0.00 49 1012.0
20260901020058 88 90 0.0 0.0 0.00 0.00 0.00 48 1011.8
20260901014552 89 90 0.0 0.9 0.00 0.00 0.00 45 1011.5
20260901013057 90 90 0.0 0.9 0.00 0.00 0.00 44 1011.5
20260901011547 91 65 0.0 1.7 0.00 0.00 0.00 43 1011.3
20260901010045 92 56 0.9 3.5 0.00 0.00 0.00 42 1011.3
20260901004549 92 88 0.9 4.3 0.00 0.00 0.00 41 1011.3
20260901003039 93 119 0.9 3.5 0.00 0.00 0.00 40 1011.2
20260901001536 94 98 0.9 2.6 0.00 0.00 0.00 40 1011.1
20260901000035 95 44 0.9 3.5 0.00 0.00 0.00 39 1011.0
20260831234534 96 117 2.6 6.1 0.00 0.00 0.00 39 1011.1
20260831233030 97 129 2.6 8.7 0.00 0.00 0.00 38 1011.1
20260831231539 97 130 0.9 7.0 0.00 0.00 0.00 36 1011.1
20260831230037 97 124 2.6 4.3 0.00 0.00 0.00 35 1011.2
20260831224527 97 125 0.9 7.0 0.00 0.00 0.00 35 1011.1
20260831223026 97 164 3.5 9.6 0.00 0.00 0.00 35 1011.3
20260831221531 98 104 2.6 7.8 0.00 0.00 0.00 36 1011.5
20260831220025 98 74 2.6 7.8 0.00 0.00 0.00 35 1011.5
20260831214522 99 83 2.6 7.0 0.00 0.00 0.00 38 1011.7
20260831213018 99 189 4.3 7.8 0.00 0.00 0.00 35 1011.9
20260831211527 99 130 4.3 10.4 0.00 0.00 0.00 35 1012.0
20260831210010 99 178 4.3 8.7 0.00 0.00 0.00 36 1012.2
20260831204510 98 157 2.6 7.8 0.00 0.00 0.00 39 1012.6
20260831203010 99 133 3.5 8.7 0.00 0.00 0.00 38 1012.9
20260831201600 98 153 1.7 7.8 0.00 0.00 0.00 42 1013.0
20260831200059 99 167 2.6 7.8 0.00 0.00 0.00 39 1013.2
20260831194620 98 148 1.7 6.1 0.00 0.00 0.00 41 1013.5
20260831193048 98 147 3.5 10.4 0.00 0.00 0.00 40 1013.6
20260831191550 97 175 2.6 9.6 0.00 0.00 0.00 41 1013.8
20260831190046 97 171 2.6 9.6 0.00 0.00 0.00 43 1014.2
20260831184532 96 140 2.6 7.8 0.00 0.00 0.00 44 1014.2